Time,TemperatureF,DewpointF,PressureIn,WindDirection,WindDirectionDegrees,WindSpeedMPH,WindSpeedGustMPH,Humidity,HourlyPrecipIn,Conditions,Clouds,dailyrainin,SoftwareType,DateUTC
2013-01-23 00:02:00,2.0,-2.0,-100.00,SSW,200,4.0,6.0,77,0.00,,,0.00,,2013-01-23 06:02:00,
2013-01-23 00:12:00,3.0,-2.0,-100.00,SSW,200,4.0,6.0,77,0.00,,,0.00,,2013-01-23 06:12:00,
2013-01-23 00:22:00,3.0,-2.0,-100.00,SSW,200,4.0,6.0,77,0.00,,,0.00,,2013-01-23 06:22:00,
2013-01-23 00:32:00,3.0,-2.0,-100.00,SSW,205,4.0,6.0,77,0.00,,,0.00,,2013-01-23 06:32:00,
2013-01-23 00:42:00,3.0,-2.0,-100.00,SSW,195,4.0,6.0,77,0.00,,,0.00,,2013-01-23 06:42:00,
2013-01-23 00:52:00,3.0,-2.0,-100.00,SSW,200,4.0,6.0,77,0.00,,,0.00,,2013-01-23 06:52:00,
2013-01-23 01:02:00,3.0,-2.0,-100.00,South,190,4.0,6.0,77,0.00,,,0.00,,2013-01-23 07:02:00,
2013-01-23 01:12:00,3.0,-2.0,-100.00,South,180,2.0,6.0,77,0.00,,,0.00,,2013-01-23 07:12:00,
2013-01-23 01:22:00,3.0,-2.0,-100.00,South,190,4.0,4.0,77,0.00,,,0.00,,2013-01-23 07:22:00,
2013-01-23 01:33:00,4.0,-2.0,-100.00,SSW,195,5.0,6.0,77,0.00,,,0.00,,2013-01-23 07:33:00,
2013-01-23 01:42:00,4.0,-2.0,-100.00,SSW,195,3.0,4.0,77,0.00,,,0.00,,2013-01-23 07:42:00,
2013-01-23 01:52:00,4.0,-2.0,-100.00,South,185,4.0,4.0,77,0.00,,,0.00,,2013-01-23 07:52:00,
2013-01-23 02:02:00,4.0,-2.0,-100.00,SSW,195,4.0,4.0,77,0.00,,,0.00,,2013-01-23 08:02:00,
2013-01-23 02:12:00,4.0,-2.0,-100.00,SSW,205,2.0,4.0,77,0.00,,,0.00,,2013-01-23 08:12:00,
2013-01-23 02:22:00,4.0,-2.0,-100.00,SW,220,4.0,4.0,77,0.00,,,0.00,,2013-01-23 08:22:00,
2013-01-23 02:33:00,4.0,-2.0,-100.00,SSW,205,4.0,4.0,77,0.00,,,0.00,,2013-01-23 08:33:00,
2013-01-23 02:42:00,4.0,-2.0,-100.00,SSW,195,3.0,5.0,77,0.00,,,0.00,,2013-01-23 08:42:00,
2013-01-23 02:52:00,4.0,-2.0,-100.00,SSW,200,4.0,6.0,77,0.00,,,0.00,,2013-01-23 08:52:00,
2013-01-23 03:02:00,4.0,0.0,-100.00,SSW,200,2.0,4.0,78,0.00,,,0.00,,2013-01-23 09:02:00,
2013-01-23 03:12:00,4.0,0.0,-100.00,South,185,4.0,4.0,78,0.00,,,0.00,,2013-01-23 09:12:00,
2013-01-23 03:22:00,4.0,0.0,-100.00,SSW,200,4.0,4.0,78,0.00,,,0.00,,2013-01-23 09:22:00,
2013-01-23 03:32:00,4.0,0.0,-100.00,SSW,200,4.0,5.0,79,0.00,,,0.00,,2013-01-23 09:32:00,
2013-01-23 03:43:00,5.0,0.0,-100.00,SSW,210,4.0,6.0,79,0.00,,,0.00,,2013-01-23 09:43:00,
2013-01-23 03:52:00,5.0,0.0,-100.00,SSW,210,4.0,6.0,79,0.00,,,0.00,,2013-01-23 09:52:00,
2013-01-23 04:02:00,5.0,0.0,-100.00,SSW,210,4.0,5.0,79,0.00,,,0.00,,2013-01-23 10:02:00,
2013-01-23 04:12:00,5.0,0.0,-100.00,SSW,210,3.0,4.0,79,0.00,,,0.00,,2013-01-23 10:12:00,
2013-01-23 04:22:00,5.0,0.0,-100.00,SW,220,4.0,4.0,79,0.00,,,0.00,,2013-01-23 10:22:00,
2013-01-23 04:32:00,5.0,0.0,-100.00,SW,230,3.0,4.0,79,0.00,,,0.00,,2013-01-23 10:32:00,
2013-01-23 04:42:00,5.0,0.0,-100.00,WSW,245,2.0,3.0,79,0.00,,,0.00,,2013-01-23 10:42:00,
2013-01-23 04:52:00,4.0,0.0,-100.00,WSW,240,2.0,4.0,79,0.00,,,0.00,,2013-01-23 10:52:00,
2013-01-23 05:02:00,4.0,0.0,-100.00,WSW,250,2.0,3.0,79,0.00,,,0.00,,2013-01-23 11:02:00,
2013-01-23 05:12:00,3.0,-2.0,-100.00,WSW,250,4.0,4.0,80,0.00,,,0.00,,2013-01-23 11:12:00,
2013-01-23 05:22:00,2.0,-2.0,-100.00,WSW,245,4.0,4.0,80,0.00,,,0.00,,2013-01-23 11:22:00,
2013-01-23 05:33:00,2.0,-2.0,-100.00,WSW,255,2.0,4.0,80,0.00,,,0.00,,2013-01-23 11:33:00,
2013-01-23 05:42:00,2.0,-2.0,-100.00,West,260,2.0,2.0,81,0.00,,,0.00,,2013-01-23 11:42:00,
2013-01-23 05:52:00,2.0,-2.0,-100.00,WSW,255,2.0,3.0,81,0.00,,,0.00,,2013-01-23 11:52:00,
2013-01-23 06:03:00,2.0,-2.0,-100.00,WSW,245,3.0,4.0,82,0.00,,,0.00,,2013-01-23 12:03:00,
2013-01-23 06:12:00,3.0,-2.0,-100.00,WSW,250,2.0,3.0,82,0.00,,,0.00,,2013-01-23 12:12:00,
2013-01-23 06:22:00,3.0,-2.0,-100.00,WSW,245,2.0,2.0,82,0.00,,,0.00,,2013-01-23 12:22:00,
2013-01-23 06:33:00,3.0,0.0,-100.00,SW,235,2.0,2.0,82,0.00,,,0.00,,2013-01-23 12:33:00,
2013-01-23 06:43:00,3.0,-2.0,-100.00,WSW,245,1.0,2.0,82,0.00,,,0.00,,2013-01-23 12:43:00,
2013-01-23 06:52:00,3.0,0.0,-100.00,WSW,255,2.0,3.0,83,0.00,,,0.00,,2013-01-23 12:52:00,
2013-01-23 07:03:00,4.0,0.0,-100.00,West,265,2.0,3.0,83,0.00,,,0.00,,2013-01-23 13:03:00,
2013-01-23 07:12:00,4.0,0.0,-100.00,West,275,2.0,3.0,83,0.00,,,0.00,,2013-01-23 13:12:00,
2013-01-23 07:23:00,5.0,1.0,-100.00,West,270,7.0,9.0,83,0.00,,,0.00,,2013-01-23 13:23:00,
2013-01-23 07:33:00,5.0,1.0,-100.00,WNW,285,6.0,8.0,84,0.00,,,0.00,,2013-01-23 13:33:00,
2013-01-23 07:42:00,5.0,1.0,-100.00,West,275,7.0,9.0,84,0.00,,,0.00,,2013-01-23 13:42:00,
2013-01-23 07:52:00,5.0,1.0,-100.00,WNW,285,7.0,10.0,85,0.00,,,0.00,,2013-01-23 13:52:00,
2013-01-23 08:02:00,5.0,1.0,-100.00,WNW,290,7.0,10.0,85,0.00,,,0.00,,2013-01-23 14:02:00,
2013-01-23 08:12:00,4.0,1.0,-100.00,WNW,290,6.0,10.0,85,0.00,,,0.00,,2013-01-23 14:12:00,
2013-01-23 08:23:00,4.0,1.0,-100.00,NW,305,7.0,9.0,85,0.00,,,0.00,,2013-01-23 14:23:00,
2013-01-23 08:33:00,4.0,1.0,-100.00,NW,305,6.0,8.0,85,0.00,,,0.00,,2013-01-23 14:33:00,
2013-01-23 08:42:00,4.0,1.0,-100.00,NW,305,7.0,9.0,85,0.00,,,0.00,,2013-01-23 14:42:00,
2013-01-23 08:53:00,5.0,1.0,-100.00,WNW,295,6.0,11.0,85,0.00,,,0.00,,2013-01-23 14:53:00,
2013-01-23 09:03:00,5.0,1.0,-100.00,NW,305,10.0,13.0,85,0.00,,,0.00,,2013-01-23 15:03:00,
2013-01-23 09:12:00,5.0,1.0,-100.00,NW,310,10.0,13.0,85,0.00,,,0.00,,2013-01-23 15:12:00,
2013-01-23 09:22:00,6.0,1.0,-100.00,NW,310,10.0,14.0,85,0.00,,,0.00,,2013-01-23 15:22:00,
2013-01-23 09:33:00,6.0,3.0,-100.00,NW,315,10.0,13.0,85,0.00,,,0.00,,2013-01-23 15:33:00,
2013-01-23 09:43:00,6.0,3.0,-100.00,NW,305,11.0,15.0,84,0.00,,,0.00,,2013-01-23 15:43:00,
2013-01-23 09:52:00,6.0,3.0,-100.00,NW,310,9.0,15.0,84,0.00,,,0.00,,2013-01-23 15:52:00,
2013-01-23 10:03:00,6.0,3.0,-100.00,NW,310,12.0,16.0,83,0.00,,,0.00,,2013-01-23 16:03:00,
2013-01-23 10:12:00,7.0,3.0,-100.00,NW,310,12.0,17.0,83,0.00,,,0.00,,2013-01-23 16:12:00,
2013-01-23 10:23:00,7.0,3.0,-100.00,NW,310,14.0,18.0,82,0.00,,,0.00,,2013-01-23 16:23:00,
2013-01-23 10:32:00,8.0,3.0,-100.00,NW,320,14.0,18.0,81,0.00,,,0.00,,2013-01-23 16:32:00,
2013-01-23 10:42:00,8.0,3.0,-100.00,NW,305,20.0,27.0,80,0.00,,,0.00,,2013-01-23 16:42:00,
2013-01-23 10:52:00,7.0,1.0,-100.00,NW,325,16.0,24.0,78,0.00,,,0.00,,2013-01-23 16:52:00,
2013-01-23 11:03:00,7.0,1.0,-100.00,NNW,330,18.0,25.0,76,0.00,,,0.00,,2013-01-23 17:03:00,
2013-01-23 11:12:00,7.0,0.0,-100.00,NW,320,21.0,27.0,74,0.00,,,0.00,,2013-01-23 17:12:00,
2013-01-23 11:22:00,6.0,0.0,-100.00,NNW,335,17.0,26.0,71,0.00,,,0.00,,2013-01-23 17:22:00,
2013-01-23 11:33:00,6.0,-2.0,-100.00,NNW,335,18.0,27.0,69,0.00,,,0.00,,2013-01-23 17:33:00,
2013-01-23 11:42:00,6.0,-2.0,-100.00,NNW,340,15.0,30.0,68,0.00,,,0.00,,2013-01-23 17:42:00,
2013-01-23 11:52:00,5.0,-4.0,-100.00,NW,320,19.0,26.0,66,0.00,,,0.00,,2013-01-23 17:52:00,
2013-01-23 12:03:00,6.0,-4.0,-100.00,NNW,335,16.0,26.0,66,0.00,,,0.00,,2013-01-23 18:03:00,
2013-01-23 12:12:00,5.0,-4.0,-100.00,NNW,340,16.0,29.0,65,0.00,,,0.00,,2013-01-23 18:12:00,
2013-01-23 12:23:00,5.0,-4.0,-100.00,NNW,330,18.0,26.0,65,0.00,,,0.00,,2013-01-23 18:23:00,
2013-01-23 12:33:00,4.0,-6.0,-100.00,NNW,330,25.0,34.0,64,0.00,,,0.00,,2013-01-23 18:33:00,
2013-01-23 12:43:00,4.0,-6.0,-100.00,NW,320,23.0,34.0,63,0.00,,,0.00,,2013-01-23 18:43:00,
2013-01-23 12:52:00,4.0,-6.0,-100.00,NNW,330,21.0,34.0,62,0.00,,,0.00,,2013-01-23 18:52:00,
2013-01-23 13:02:00,3.0,-8.0,-100.00,NW,325,24.0,35.0,62,0.00,,,0.00,,2013-01-23 19:02:00,
2013-01-23 13:13:00,3.0,-8.0,-100.00,NNW,340,21.0,35.0,61,0.00,,,0.00,,2013-01-23 19:13:00,
2013-01-23 13:22:00,3.0,-8.0,-100.00,NNW,340,20.0,29.0,61,0.00,,,0.00,,2013-01-23 19:22:00,
2013-01-23 13:33:00,2.0,-8.0,-100.00,NNW,330,21.0,35.0,61,0.00,,,0.00,,2013-01-23 19:33:00,
2013-01-23 13:43:00,2.0,-8.0,-100.00,NNW,340,22.0,34.0,60,0.00,,,0.00,,2013-01-23 19:43:00,
2013-01-23 13:52:00,2.0,-9.0,-100.00,NNW,330,24.0,34.0,60,0.00,,,0.00,,2013-01-23 19:52:00,
2013-01-23 14:03:00,1.0,-9.0,-100.00,NNW,340,25.0,33.0,59,0.00,,,0.00,,2013-01-23 20:03:00,
2013-01-23 14:12:00,2.0,-9.0,-100.00,NNW,345,21.0,31.0,59,0.00,,,0.00,,2013-01-23 20:12:00,
2013-01-23 14:23:00,1.0,-9.0,-100.00,NW,320,18.0,34.0,59,0.00,,,0.00,,2013-01-23 20:23:00,
2013-01-23 14:33:00,1.0,-9.0,-100.00,NW,325,22.0,29.0,60,0.00,,,0.00,,2013-01-23 20:33:00,
2013-01-23 14:42:00,0.0,-11.0,-100.00,NNW,340,23.0,29.0,59,0.00,,,0.00,,2013-01-23 20:42:00,
2013-01-23 14:53:00,0.0,-11.0,-100.00,NNW,335,21.0,32.0,59,0.00,,,0.00,,2013-01-23 20:53:00,
2013-01-23 15:03:00,0.0,-11.0,-100.00,NNW,340,22.0,32.0,59,0.00,,,0.00,,2013-01-23 21:03:00,
2013-01-23 15:12:00,0.0,-11.0,-100.00,North,350,19.0,27.0,59,0.00,,,0.00,,2013-01-23 21:12:00,
2013-01-23 15:22:00,0.0,-11.0,-100.00,NNW,330,21.0,29.0,59,0.00,,,0.00,,2013-01-23 21:22:00,
2013-01-23 15:33:00,0.0,-11.0,-100.00,NNW,330,16.0,26.0,59,0.00,,,0.00,,2013-01-23 21:33:00,
2013-01-23 15:42:00,-1.0,-11.0,-100.00,NNW,335,18.0,24.0,58,0.00,,,0.00,,2013-01-23 21:42:00,
2013-01-23 15:52:00,0.0,-11.0,-100.00,NNW,335,14.0,21.0,58,0.00,,,0.00,,2013-01-23 21:52:00,
2013-01-23 16:02:00,0.0,-11.0,-100.00,North,350,14.0,21.0,58,0.00,,,0.00,,2013-01-23 22:02:00,
2013-01-23 16:12:00,-1.0,-11.0,-100.00,NNW,335,16.0,23.0,57,0.00,,,0.00,,2013-01-23 22:12:00,
2013-01-23 16:23:00,-1.0,-13.0,-100.00,NNW,330,15.0,21.0,57,0.00,,,0.00,,2013-01-23 22:23:00,
2013-01-23 16:33:00,-1.0,-13.0,-100.00,NNW,345,16.0,19.0,56,0.00,,,0.00,,2013-01-23 22:33:00,
2013-01-23 16:42:00,-1.0,-13.0,-100.00,NNW,340,17.0,22.0,56,0.00,,,0.00,,2013-01-23 22:42:00,
2013-01-23 16:52:00,-1.0,-13.0,-100.00,NNW,335,12.0,23.0,55,0.00,,,0.00,,2013-01-23 22:52:00,
2013-01-23 17:03:00,-1.0,-13.0,-100.00,North,350,14.0,18.0,55,0.00,,,0.00,,2013-01-23 23:03:00,
2013-01-23 17:12:00,-2.0,-13.0,-100.00,NNW,335,17.0,20.0,55,0.00,,,0.00,,2013-01-23 23:12:00,
2013-01-23 17:22:00,-2.0,-15.0,-100.00,NNW,340,17.0,22.0,55,0.00,,,0.00,,2013-01-23 23:22:00,
2013-01-23 17:33:00,-3.0,-15.0,-100.00,NNW,330,11.0,22.0,56,0.00,,,0.00,,2013-01-23 23:33:00,
2013-01-23 17:42:00,-3.0,-15.0,-100.00,NNW,335,11.0,16.0,56,0.00,,,0.00,,2013-01-23 23:42:00,
2013-01-23 17:52:00,-4.0,-15.0,-100.00,NNW,335,9.0,16.0,57,0.00,,,0.00,,2013-01-23 23:52:00,
2013-01-23 18:03:00,-4.0,-15.0,-100.00,NW,325,8.0,18.0,57,0.00,,,0.00,,2013-01-24 00:03:00,
2013-01-23 18:12:00,-4.0,-15.0,-100.00,NNW,330,13.0,16.0,58,0.00,,,0.00,,2013-01-24 00:12:00,
2013-01-23 18:22:00,-5.0,-15.0,-100.00,NW,325,12.0,16.0,59,0.00,,,0.00,,2013-01-24 00:22:00,
2013-01-23 18:32:00,-5.0,-15.0,-100.00,NNW,335,9.0,15.0,60,0.00,,,0.00,,2013-01-24 00:32:00,
2013-01-23 18:42:00,-5.0,-15.0,-100.00,NNW,330,11.0,15.0,60,0.00,,,0.00,,2013-01-24 00:42:00,
2013-01-23 18:52:00,-6.0,-15.0,-100.00,NNW,335,11.0,15.0,61,0.00,,,0.00,,2013-01-24 00:52:00,
2013-01-23 19:03:00,-6.0,-15.0,-100.00,NNW,330,11.0,13.0,62,0.00,,,0.00,,2013-01-24 01:03:00,
2013-01-23 19:12:00,-6.0,-15.0,-100.00,NW,325,11.0,16.0,62,0.00,,,0.00,,2013-01-24 01:12:00,
2013-01-23 19:23:00,-6.0,-17.0,-100.00,NNW,340,14.0,17.0,62,0.00,,,0.00,,2013-01-24 01:23:00,
2013-01-23 19:33:00,-6.0,-17.0,-100.00,NNW,340,13.0,19.0,63,0.00,,,0.00,,2013-01-24 01:33:00,
2013-01-23 19:42:00,-7.0,-17.0,-100.00,North,350,8.0,15.0,63,0.00,,,0.00,,2013-01-24 01:42:00,
2013-01-23 19:52:00,-7.0,-17.0,-100.00,North,350,10.0,13.0,63,0.00,,,0.00,,2013-01-24 01:52:00,
2013-01-23 20:02:00,-7.0,-17.0,-100.00,North,350,12.0,17.0,64,0.00,,,0.00,,2013-01-24 02:02:00,
2013-01-23 20:12:00,-8.0,-17.0,-100.00,North,350,11.0,14.0,64,0.00,,,0.00,,2013-01-24 02:12:00,
2013-01-23 20:22:00,-8.0,-17.0,-100.00,NNW,335,12.0,17.0,65,0.00,,,0.00,,2013-01-24 02:22:00,
2013-01-23 20:33:00,-8.0,-17.0,-100.00,North,355,10.0,15.0,65,0.00,,,0.00,,2013-01-24 02:33:00,
2013-01-23 20:42:00,-8.0,-17.0,-100.00,North,355,10.0,15.0,65,0.00,,,0.00,,2013-01-24 02:42:00,
2013-01-23 20:52:00,-8.0,-17.0,-100.00,North,355,10.0,15.0,65,0.00,,,0.00,,2013-01-24 02:52:00,
2013-01-23 21:02:00,-9.0,-17.0,-100.00,North,355,8.0,10.0,66,0.00,,,0.00,,2013-01-24 03:02:00,
2013-01-23 21:12:00,-9.0,-17.0,-100.00,North,355,9.0,11.0,66,0.00,,,0.00,,2013-01-24 03:12:00,
2013-01-23 21:22:00,-9.0,-17.0,-100.00,North,0,9.0,13.0,66,0.00,,,0.00,,2013-01-24 03:22:00,
2013-01-23 21:32:00,-9.0,-17.0,-100.00,North,0,11.0,12.0,66,0.00,,,0.00,,2013-01-24 03:32:00,
2013-01-23 21:43:00,-9.0,-17.0,-100.00,North,0,9.0,12.0,66,0.00,,,0.00,,2013-01-24 03:43:00,
2013-01-23 21:52:00,-9.0,-17.0,-100.00,North,10,8.0,11.0,66,0.00,,,0.00,,2013-01-24 03:52:00,
2013-01-23 22:02:00,-9.0,-17.0,-100.00,North,0,6.0,12.0,66,0.00,,,0.00,,2013-01-24 04:02:00,
2013-01-23 22:12:00,-9.0,-18.0,-100.00,North,355,6.0,13.0,66,0.00,,,0.00,,2013-01-24 04:12:00,
2013-01-23 22:22:00,-9.0,-18.0,-100.00,North,10,8.0,12.0,66,0.00,,,0.00,,2013-01-24 04:22:00,
2013-01-23 22:32:00,-9.0,-18.0,-100.00,North,350,6.0,11.0,66,0.00,,,0.00,,2013-01-24 04:32:00,
2013-01-23 22:42:00,-10.0,-18.0,-100.00,North,0,7.0,12.0,66,0.00,,,0.00,,2013-01-24 04:42:00,
2013-01-23 22:52:00,-10.0,-18.0,-100.00,NNE,20,10.0,12.0,66,0.00,,,0.00,,2013-01-24 04:52:00,
2013-01-23 23:03:00,-10.0,-18.0,-100.00,NNE,20,8.0,12.0,66,0.00,,,0.00,,2013-01-24 05:03:00,
2013-01-23 23:12:00,-10.0,-18.0,-100.00,North,10,9.0,12.0,66,0.00,,,0.00,,2013-01-24 05:12:00,
2013-01-23 23:22:00,-10.0,-18.0,-100.00,NNE,15,9.0,12.0,66,0.00,,,0.00,,2013-01-24 05:22:00,
2013-01-23 23:32:00,-10.0,-18.0,-100.00,NNE,25,9.0,12.0,66,0.00,,,0.00,,2013-01-24 05:32:00,
2013-01-23 23:42:00,-10.0,-18.0,-100.00,NNE,15,10.0,13.0,66,0.00,,,0.00,,2013-01-24 05:42:00,
2013-01-23 23:52:00,-10.0,-18.0,-100.00,NNE,20,7.0,12.0,66,0.00,,,0.00,,2013-01-24 05:52:00,